GW3558 Weather Reports


Display with metric or nautical units.
time (UTC)temp
F
wind
direction
speed
MPH
gust
MPH
rain 1hr
in
rain 24hr
in
rain mn
in
humidity
%
barometer
mb
20260903130104 38 115 0.0 0.0 0.00 0.04 0.03 81 1011.0
20260903125018 38 115 0.0 0.0 0.00 0.07 0.03 82 1011.0
20260903124600 38 115 0.0 0.0 0.00 0.07 0.03 81 1011.0
20260903123520 38 115 0.0 0.0 0.00 0.07 0.03 84 1011.1
20260903123054 38 115 0.0 0.0 0.00 0.07 0.03 83 1011.1
20260903122519 38 115 0.0 0.0 0.00 0.07 0.03 83 1011.1
20260903122019 38 115 0.0 0.0 0.00 0.07 0.03 84 1010.9
20260903121551 39 115 0.0 0.0 0.00 0.07 0.03 85 1010.7
20260903121017 39 115 0.0 0.0 0.00 0.07 0.03 84 1010.8
20260903120517 39 115 0.0 0.0 0.00 0.07 0.03 86 1010.8
20260903120056 39 115 0.0 0.0 0.00 0.07 0.03 88 1010.8
20260903115517 39 115 0.0 0.0 0.00 0.07 0.03 89 1010.8
20260903115020 39 115 0.0 0.0 0.00 0.07 0.03 90 1010.7
20260903114552 40 115 0.0 0.0 0.00 0.07 0.03 90 1010.7
20260903113520 40 115 0.0 0.0 0.00 0.07 0.03 94 1011.0
20260903113052 40 115 0.0 0.0 0.00 0.07 0.03 94 1011.0
20260903112520 40 115 0.0 0.0 0.00 0.07 0.03 93 1011.0
20260903112020 41 115 0.0 0.0 0.00 0.07 0.03 93 1011.0
20260903111620 41 115 0.0 0.0 0.00 0.07 0.03 94 1010.9
20260903111019 41 115 0.0 0.0 0.00 0.07 0.03 94 1010.9
20260903110519 41 115 0.0 0.0 0.00 0.07 0.03 94 1010.8
20260903110059 42 115 0.0 0.0 0.00 0.07 0.03 95 1010.9
20260903105522 42 115 0.0 0.0 0.00 0.07 0.03 95 1010.9
20260903105018 42 115 0.0 0.0 0.00 0.07 0.03 95 1011.0
20260903104626 42 115 0.0 0.0 0.00 0.07 0.03 95 1010.8
20260903103051 42 115 0.0 0.0 0.00 0.07 0.03 95 1010.8
20260903102519 41 115 0.0 0.0 0.00 0.07 0.03 94 1011.0
20260903102023 41 115 0.0 0.0 0.00 0.07 0.03 94 1011.0
20260903101600 42 115 0.0 0.0 0.00 0.07 0.03 94 1010.8
20260903101019 42 115 0.0 0.0 0.00 0.07 0.03 94 1010.6
20260903100054 42 115 0.0 0.0 0.00 0.07 0.03 94 1010.5
20260903094023 43 115 0.0 0.0 0.01 0.07 0.03 93 1010.3
20260903093524 43 115 0.0 0.0 0.01 0.07 0.03 93 1010.4
20260903093039 43 115 0.0 0.0 0.02 0.07 0.03 94 1010.5
20260903092517 43 115 0.0 0.0 0.03 0.07 0.03 93 1010.5
20260903092019 43 115 0.0 0.0 0.03 0.07 0.03 93 1010.6
20260903091017 43 115 0.0 0.0 0.03 0.07 0.03 93 1010.7
20260903090518 43 115 0.0 0.0 0.03 0.07 0.03 93 1010.7
20260903090037 43 115 0.0 0.0 0.03 0.07 0.03 92 1010.4
20260903085516 43 115 0.0 0.0 0.03 0.07 0.03 92 1010.6
20260903085019 43 115 0.0 0.0 0.03 0.07 0.03 92 1010.7
20260903084536 43 115 0.0 0.0 0.03 0.07 0.03 92 1010.6
20260903084019 43 115 0.0 0.0 0.02 0.06 0.02 91 1010.7
20260903083521 43 115 0.0 0.0 0.02 0.06 0.02 91 1010.7
20260903083032 43 115 0.0 0.0 0.01 0.04 0.01 90 1010.9
20260903082517 43 115 0.0 0.0 0.00 0.04 0.00 89 1011.0
20260903082017 44 115 0.0 0.0 0.00 0.04 0.00 88 1010.9
20260903081021 44 115 0.0 0.0 0.00 0.04 0.00 86 1010.7
20260903080518 44 115 0.0 0.0 0.00 0.04 0.00 83 1010.8
20260903080037 44 115 0.0 0.0 0.00 0.04 0.00 83 1010.5
20260903075520 44 115 0.0 0.0 0.00 0.04 0.00 81 1010.5
20260903075021 44 115 0.0 0.0 0.00 0.04 0.00 79 1010.5
20260903074017 45 115 0.0 0.0 0.00 0.04 0.00 79 1010.4
20260903073523 45 115 0.0 0.0 0.00 0.04 0.00 79 1010.4
20260903072515 45 115 0.0 0.0 0.00 0.04 0.00 77 1010.2
20260903072016 45 115 0.0 0.0 0.00 0.04 0.00 77 1010.2
20260903070519 45 115 0.0 0.0 0.00 0.04 0.00 77 1010.3
20260903065520 45 115 0.0 0.0 0.00 0.04 0.04 76 1010.4
20260903065020 45 115 0.0 0.0 0.00 0.04 0.04 76 1010.4
20260903064021 45 115 0.0 0.0 0.00 0.04 0.04 75 1010.3
20260903063518 45 115 0.0 0.0 0.00 0.04 0.04 75 1010.3
20260903062522 45 115 0.0 0.0 0.00 0.04 0.04 74 1010.4
20260903062022 45 115 0.0 0.0 0.00 0.04 0.04 74 1010.3
20260903061555 45 115 0.0 0.0 0.00 0.04 0.04 73 1010.4
20260903061019 45 115 0.0 0.0 0.00 0.04 0.04 73 1010.3
20260903060519 45 115 0.0 0.0 0.00 0.04 0.04 72 1010.3
20260903055519 46 115 0.0 0.0 0.00 0.04 0.04 72 1010.3
20260903055019 45 115 0.0 0.0 0.00 0.04 0.04 72 1010.3
20260903054018 45 115 0.0 0.0 0.00 0.04 0.04 78 1010.4
20260903053516 45 115 0.0 0.0 0.00 0.04 0.04 75 1010.3
20260903052518 45 115 0.0 0.0 0.00 0.04 0.04 72 1010.4
20260903052017 45 115 0.0 0.0 0.00 0.04 0.04 72 1010.3
20260903051018 45 115 0.0 0.0 0.00 0.04 0.04 72 1010.2
20260903050519 45 115 0.0 0.0 0.00 0.04 0.04 72 1010.3
20260903045520 45 115 0.0 0.0 0.00 0.04 0.04 73 1010.4
20260903045019 45 115 0.0 0.0 0.00 0.04 0.04 75 1010.5
20260903044537 45 115 0.0 0.0 0.00 0.04 0.04 76 1010.4
20260903044018 45 115 0.0 0.0 0.00 0.04 0.04 76 1010.4
20260903043518 45 115 0.0 0.0 0.00 0.04 0.04 76 1010.5
20260903043041 46 115 0.0 0.0 0.00 0.04 0.04 76 1010.2
20260903042520 46 115 0.0 0.0 0.00 0.04 0.04 76 1010.2
20260903042017 46 115 0.0 0.0 0.00 0.04 0.04 75 1010.3
20260903041541 46 115 0.0 0.0 0.00 0.04 0.04 73 1010.2
20260903041021 46 115 0.0 0.0 0.00 0.04 0.04 72 1010.2
20260903040517 46 115 0.0 0.0 0.00 0.04 0.04 73 1010.2
20260903040037 46 115 0.0 0.0 0.00 0.04 0.04 73 1010.0
20260903035522 46 115 0.0 0.0 0.00 0.04 0.04 72 1010.0
20260903034543 47 115 0.0 3.0 0.00 0.04 0.04 70 1009.5
20260903032520 48 115 0.0 2.0 0.00 0.04 0.04 72 1009.5
20260903032018 48 115 0.0 2.0 0.00 0.04 0.04 72 1009.3
20260903031542 48 115 0.0 3.0 0.00 0.04 0.04 74 1009.3
20260903031017 48 116 0.0 0.0 0.00 0.04 0.04 75 1009.4
20260903030519 48 117 0.0 0.0 0.00 0.04 0.04 75 1009.4
20260903030106 48 117 0.0 0.0 0.00 0.04 0.04 76 1009.3
20260903025519 48 117 0.0 0.0 0.00 0.04 0.04 76 1009.4
20260903025016 48 117 0.0 0.0 0.00 0.04 0.04 76 1009.3
20260903024545 48 117 0.0 0.0 0.00 0.04 0.04 76 1009.3
20260903023043 48 117 0.0 0.0 0.00 0.04 0.04 75 1009.3
20260903022518 48 116 0.0 0.0 0.00 0.04 0.04 74 1009.2
20260903022017 48 116 0.0 0.0 0.00 0.04 0.04 74 1009.2
20260903021540 48 116 0.0 0.0 0.00 0.04 0.04 73 1009.2
20260903021019 49 117 0.0 0.0 0.00 0.04 0.04 73 1009.3
20260903020518 49 117 0.0 4.0 0.00 0.04 0.04 73 1009.3
20260903020041 49 117 0.0 4.0 0.00 0.04 0.04 72 1009.3
20260903015518 49 116 0.0 4.0 0.00 0.04 0.04 72 1009.3
20260903015017 49 116 0.0 6.0 0.00 0.04 0.04 71 1009.5
20260903014539 50 116 0.0 4.0 0.00 0.04 0.04 71 1009.5
20260903014019 50 117 0.0 4.0 0.00 0.04 0.04 70 1009.5
20260903013518 50 117 0.0 3.0 0.00 0.04 0.04 70 1009.6
20260903013045 50 117 0.0 3.0 0.00 0.04 0.04 68 1009.6
20260903012518 50 117 0.0 2.0 0.00 0.04 0.04 66 1009.7
20260903012016 50 116 0.0 2.0 0.00 0.04 0.04 69 1009.8
20260903011552 51 116 0.0 2.0 0.00 0.04 0.04 69 1009.7
20260903011017 51 116 0.0 3.0 0.00 0.04 0.04 68 1009.8
20260903010518 51 117 0.0 3.0 0.00 0.04 0.04 68 1009.8
20260903010050 51 117 0.0 6.0 0.00 0.04 0.04 69 1009.8
20260903005018 52 116 0.0 4.0 0.00 0.04 0.04 63 1009.8
20260903004539 52 117 0.0 7.0 0.00 0.04 0.04 62 1009.8
20260903004017 53 117 0.0 4.0 0.00 0.04 0.04 62 1009.8
20260903003518 53 116 0.0 6.0 0.00 0.04 0.04 61 1009.8
20260903003039 53 115 0.0 11.0 0.00 0.04 0.04 61 1009.7
20260903002517 53 115 0.0 11.0 0.00 0.04 0.04 60 1009.7
20260903002018 53 117 1.0 9.0 0.00 0.04 0.04 60 1009.7
20260903001538 53 116 0.0 8.0 0.00 0.04 0.04 61 1009.8
20260903001018 53 116 0.0 8.0 0.00 0.04 0.04 61 1009.8
20260903000518 53 116 1.0 9.0 0.00 0.04 0.04 61 1009.8
20260903000046 53 117 1.0 9.0 0.00 0.04 0.04 61 1009.7
20260902235518 53 116 1.0 8.0 0.00 0.04 0.04 60 1009.7
20260902235022 54 128 1.0 7.0 0.00 0.04 0.04 59 1009.8
20260902234538 54 117 1.0 7.0 0.00 0.04 0.04 59 1009.8
20260902234018 54 117 1.0 7.0 0.00 0.04 0.04 58 1009.8
20260902233522 54 117 0.0 7.0 0.00 0.04 0.04 58 1009.8
20260902233043 54 116 0.0 11.0 0.00 0.04 0.04 58 1009.8
20260902232522 54 116 0.0 11.0 0.00 0.04 0.04 57 1009.8
20260902232017 55 116 2.0 10.0 0.00 0.04 0.04 56 1009.7
20260902231551 55 117 2.0 10.0 0.00 0.04 0.04 55 1009.7
20260902231019 55 117 1.0 11.0 0.00 0.04 0.04 54 1009.8
20260902230517 55 117 2.0 11.0 0.00 0.04 0.04 56 1010.0
20260902224552 55 116 3.0 10.0 0.00 0.04 0.04 53 1009.9
20260902223518 56 125 4.0 11.0 0.00 0.04 0.04 52 1010.0
20260902223048 56 60 2.0 10.0 0.00 0.04 0.04 52 1009.8
20260902222517 56 90 2.0 10.0 0.00 0.04 0.04 50 1009.8
20260902222023 56 119 2.0 10.0 0.00 0.04 0.04 53 1010.0
20260902221550 56 109 1.0 13.0 0.00 0.04 0.04 56 1010.1
20260902215519 57 109 1.0 8.0 0.00 0.04 0.04 56 1010.1
20260902215017 57 98 0.0 8.0 0.00 0.04 0.04 58 1010.3
20260902214539 57 101 1.0 8.0 0.00 0.04 0.04 56 1010.4
20260902214019 58 120 0.0 9.0 0.00 0.04 0.04 57 1010.2
20260902213519 57 94 2.0 9.0 0.00 0.04 0.04 57 1010.2
20260902213045 57 107 1.0 10.0 0.00 0.04 0.04 58 1010.2
20260902211544 59 92 3.0 14.0 0.00 0.04 0.04 56 1010.5
20260902211017 60 109 2.0 14.0 0.00 0.04 0.04 54 1010.5
20260902210518 60 112 1.0 9.0 0.00 0.04 0.04 57 1010.4
20260902210046 59 103 2.0 11.0 0.00 0.04 0.04 56 1010.5
20260902205518 60 105 2.0 11.0 0.00 0.04 0.04 55 1010.5
20260902205019 60 111 1.0 10.0 0.00 0.04 0.04 58 1010.4
20260902204547 60 109 2.0 13.0 0.00 0.04 0.04 56 1010.6
20260902204020 61 112 4.0 13.0 0.00 0.04 0.04 56 1010.4
20260902203518 60 114 3.0 11.0 0.00 0.04 0.04 57 1010.9
20260902203046 59 69 3.0 11.0 0.00 0.04 0.04 58 1010.6
20260902201549 59 136 3.0 10.0 0.00 0.04 0.04 62 1010.5
20260902200518 57 103 4.0 10.0 0.00 0.04 0.04 62 1010.7
20260902200045 58 119 3.0 12.0 0.00 0.04 0.04 61 1010.8
20260902194542 57 109 0.0 9.0 0.00 0.04 0.04 66 1010.9
20260902194019 57 111 3.0 9.0 0.00 0.04 0.04 66 1011.0
20260902193521 56 65 2.0 5.0 0.00 0.04 0.04 66 1011.1
20260902193054 56 101 0.0 8.0 0.00 0.04 0.04 66 1010.9
20260902192519 58 111 1.0 8.0 0.00 0.04 0.04 63 1010.9
20260902192019 59 107 3.0 10.0 0.00 0.04 0.04 62 1011.0
20260902191542 60 102 2.0 9.0 0.00 0.04 0.04 64 1011.1
20260902191019 59 103 2.0 11.0 0.00 0.04 0.04 65 1011.0
20260902190049 59 92 4.0 11.0 0.00 0.04 0.04 62 1011.0
20260902185518 58 108 1.0 8.0 0.00 0.04 0.04 65 1011.0
20260902184606 58 115 0.0 10.0 0.00 0.04 0.04 66 1011.4
20260902184020 58 104 3.0 11.0 0.00 0.04 0.04 64 1011.4
20260902183047 59 120 0.0 12.0 0.00 0.04 0.04 62 1011.5
20260902182520 59 103 0.0 10.0 0.00 0.04 0.04 61 1011.3
20260902182019 58 89 2.0 10.0 0.00 0.04 0.04 62 1011.4
20260902181545 58 113 0.0 10.0 0.00 0.04 0.04 62 1011.4
20260902180517 57 100 2.0 11.0 0.00 0.04 0.04 67 1011.3
20260902180052 57 104 2.0 8.0 0.00 0.04 0.04 67 1011.3
20260902175516 57 99 1.0 12.0 0.00 0.04 0.04 70 1011.1
20260902174544 55 97 1.0 6.0 0.00 0.04 0.04 69 1011.3
20260902173043 54 55 0.0 7.0 0.00 0.04 0.04 75 1010.9
20260902172521 53 90 0.0 6.0 0.00 0.04 0.04 76 1010.8
20260902171557 52 101 1.0 6.0 0.00 0.04 0.04 79 1011.0
20260902170523 53 101 0.0 8.0 0.00 0.04 0.04 81 1011.0
20260902170050 53 108 0.0 8.0 0.00 0.04 0.04 83 1011.0
20260902165517 52 103 0.0 4.0 0.00 0.04 0.04 80 1011.1
20260902164546 51 98 0.0 6.0 0.00 0.04 0.04 77 1010.8
20260902163044 51 99 0.0 0.0 0.00 0.04 0.04 78 1010.4
20260902162020 51 98 0.0 2.0 0.00 0.04 0.04 81 1010.8
20260902161542 51 98 0.0 2.0 0.00 0.04 0.04 81 1011.0
20260902161019 52 87 0.0 0.0 0.00 0.04 0.04 79 1010.9
20260902160043 52 94 0.0 0.0 0.00 0.04 0.04 79 1010.8
20260902155525 52 95 0.0 0.0 0.00 0.04 0.04 77 1011.0
20260902154552 53 76 0.0 0.0 0.00 0.04 0.04 73 1010.7
20260902154018 54 76 0.0 0.0 0.00 0.04 0.04 79 1010.8
20260902153525 53 80 0.0 0.0 0.00 0.04 0.04 76 1010.9
20260902153054 53 77 0.0 0.0 0.00 0.04 0.04 79 1010.9
20260902152518 51 71 0.0 0.0 0.01 0.04 0.04 81 1010.7
20260902151547 51 71 0.0 0.0 0.01 0.04 0.04 80 1010.9
20260902150054 51 73 0.0 0.0 0.01 0.04 0.04 80 1011.0
20260902144553 50 76 0.0 0.0 0.01 0.04 0.04 78 1011.1
20260902143517 50 81 0.0 0.0 0.01 0.04 0.04 77 1011.3
20260902143050 50 81 0.0 0.0 0.01 0.04 0.04 75 1011.3
20260902141554 50 88 0.0 7.0 0.00 0.03 0.03 71 1010.9
20260902141027 49 71 0.0 7.0 0.00 0.03 0.03 75 1011.0
20260902140518 49 91 2.0 7.0 0.00 0.03 0.03 75 1011.1
20260902140051 49 92 2.0 7.0 0.00 0.03 0.03 76 1011.2
20260902135524 49 84 0.0 8.0 0.00 0.03 0.03 77 1011.3
20260902135025 49 92 3.0 8.0 0.01 0.03 0.03 75 1011.5
20260902134556 49 90 0.0 7.0 0.01 0.03 0.03 76 1011.4
20260902133041 48 64 0.0 2.0 0.03 0.03 0.03 79 1011.1
20260902132525 48 74 0.0 3.0 0.03 0.03 0.03 78 1010.8
20260902131555 48 86 0.0 6.0 0.03 0.03 0.03 78 1010.8